Flag for Mexico Weather past 2 weeks in Cancún, Quintana Roo, Mexico

Now
90 °F

Scattered clouds.


Feels Like: 103 °F
Forecast: 79 / 90 °F
Wind: 9 mph from East

Location: Cancun International Airport

Current Time: Aug 28, 2015 at 12:57:02 PM

Latest Report: Aug 28, 2015 at 11:48 AM


Visibility: 7 mi

Pressure: 29.96 "Hg

Humidity: 67%

Dew point: 77 °F

Location of CancúnLocation

Historic Weather in Cancún — Graph

°F

Cancún temperature yesterday

Maximum temperature yesterday: 90 °F (at 10:46 AM)
Minimum temperature yesterday: 75 °F (at 3:40 AM)
Average temperature yesterday: 82 °F

Past Weeks' High & Low Weather Summary

 TemperatureHumidityPressure
High91 °F (Aug 14, 1:47 PM)100% (Aug 14, 12:45 AM)30.03 "Hg (Aug 14, 12:45 AM)
Low73 °F (Aug 14, 4:47 AM)49% (Aug 23, 11:43 AM)29.88 "Hg (Aug 18, 6:48 PM)
Average83 °F82%29.96 "Hg
* Reported Aug 13 12:50 PM — Aug 28 11:48 AM, Cancún, Weather by CustomWeather, © 2015

Note: Actual official high and low records may vary slightly from our data, if they occured in-between our weather recording intervals... More about our weather records

Advertising

Cancún weather history for previous 24 hours

 ConditionsComfort  
Time TempWeatherWind HumidityBarometerVisibility
11:48 AM
Fri, Aug 28
90 °FScattered clouds.9 mph67%29.96 "Hg7 mi
10:52 AM86 °FBroken clouds.3 mph75%29.98 "Hg7 mi
9:46 AM86 °FBroken clouds.3 mph75%29.98 "Hg7 mi
8:17 AM77 °FSleet. Cloudy.N/A100%29.95 "HgN/A
7:51 AM77 °FLight rain. Broken clouds.2 mph94%29.94 "Hg6 mi
7:24 AM77 °FSleet. Overcast.N/A94%29.95 "HgN/A
6:45 AM77 °FPartly cloudy.No wind89%29.93 "Hg7 mi
5:46 AM75 °FPassing clouds.6 mph100%29.91 "Hg7 mi
4:47 AM75 °FPassing clouds.No wind94%29.91 "Hg7 mi
3:48 AM75 °FPassing clouds.No wind94%29.90 "Hg7 mi
2:43 AM75 °FPassing clouds.No wind100%29.93 "Hg7 mi
12:45 AM77 °FPassing clouds.No wind100%29.96 "Hg7 mi
11:46 PM
Thu, Aug 27
79 °FPassing clouds.6 mph94%29.97 "Hg7 mi
10:47 PM79 °FPassing clouds.6 mph94%29.97 "Hg7 mi
9:48 PM79 °FPassing clouds.No wind94%29.96 "Hg7 mi
4:47 PM88 °FPartly sunny.No wind66%29.90 "Hg7 mi
3:45 PM86 °FBroken clouds.5 mph75%29.92 "Hg7 mi
2:43 PM86 °FBroken clouds.12 mph75%29.93 "Hg7 mi
1:44 PM86 °FScattered clouds.12 mph75%29.95 "Hg7 mi
12:46 PM90 °FScattered clouds.13 mph63%29.96 "Hg7 mi
Weather by CustomWeather, © 2015

See weather overviewHow to use our weather pages